| time (UTC) | temp F | wind direction | speed MPH | gust MPH | rain 1hr in | rain 24hr in | rain mn in | humidity % | barometer mb |
| 20260510001520 | 89 | 98 | 1.0 | 7.0 | 0.00 | 0.00 | 0.00 | 43 | 1016.1 |
| 20260510000018 | 89 | 98 | 0.0 | 4.0 | 0.00 | 0.00 | 0.00 | 41 | 1016.2 |
| 20260509234519 | 89 | 98 | 1.0 | 6.0 | 0.00 | 0.00 | 0.00 | 40 | 1016.3 |
| 20260509233016 | 90 | 97 | 2.0 | 6.0 | 0.00 | 0.00 | 0.00 | 39 | 1016.4 |
| 20260509231515 | 91 | 97 | 1.0 | 6.0 | 0.00 | 0.00 | 0.00 | 38 | 1016.5 |
| 20260509230012 | 91 | 97 | 2.0 | 6.0 | 0.00 | 0.00 | 0.00 | 31 | 1016.6 |
| 20260509224507 | 91 | 99 | 0.0 | 3.0 | 0.00 | 0.00 | 0.00 | 32 | 1016.8 |
| 20260509223004 | 90 | 99 | 1.0 | 6.0 | 0.00 | 0.00 | 0.00 | 32 | 1017.0 |
| 20260509221501 | 89 | 98 | 1.0 | 6.0 | 0.00 | 0.00 | 0.00 | 35 | 1017.2 |
| 20260509220059 | 89 | 99 | 0.0 | 4.0 | 0.00 | 0.00 | 0.00 | 36 | 1017.2 |
| 20260509214556 | 88 | 100 | 1.0 | 3.0 | 0.00 | 0.00 | 0.00 | 37 | 1017.4 |
| 20260509213106 | 88 | 100 | 3.0 | 8.0 | 0.00 | 0.00 | 0.00 | 38 | 1017.7 |
| 20260509211611 | 87 | 95 | 0.0 | 4.0 | 0.00 | 0.00 | 0.00 | 37 | 1018.0 |
| 20260509210056 | 87 | 94 | 2.0 | 7.0 | 0.00 | 0.00 | 0.00 | 36 | 1018.1 |
| 20260509204557 | 86 | 95 | 0.0 | 6.0 | 0.00 | 0.00 | 0.00 | 38 | 1018.2 |
| 20260509203046 | 85 | 95 | 0.0 | 7.0 | 0.00 | 0.00 | 0.00 | 40 | 1018.4 |
| 20260509201536 | 84 | 95 | 3.0 | 8.0 | 0.00 | 0.00 | 0.00 | 42 | 1018.5 |
| 20260509200032 | 83 | 95 | 0.0 | 6.0 | 0.00 | 0.00 | 0.00 | 47 | 1018.6 |
| 20260509194529 | 82 | 95 | 1.0 | 4.0 | 0.00 | 0.00 | 0.00 | 47 | 1018.8 |
| 20260509193024 | 81 | 95 | 0.0 | 4.0 | 0.00 | 0.00 | 0.00 | 51 | 1019.0 |
| 20260509191520 | 80 | 95 | 4.0 | 7.0 | 0.00 | 0.00 | 0.00 | 50 | 1019.3 |
| 20260509190022 | 79 | 95 | 0.0 | 8.0 | 0.00 | 0.00 | 0.00 | 56 | 1019.4 |
| 20260509184512 | 78 | 95 | 3.0 | 7.0 | 0.00 | 0.00 | 0.00 | 57 | 1019.6 |
| 20260509183013 | 77 | 95 | 0.0 | 9.0 | 0.00 | 0.00 | 0.00 | 59 | 1019.7 |
| 20260509181504 | 76 | 95 | 1.0 | 3.0 | 0.00 | 0.00 | 0.00 | 61 | 1019.8 |
| 20260509180001 | 75 | 95 | 1.0 | 6.0 | 0.00 | 0.00 | 0.00 | 61 | 1020.0 |
| 20260509174557 | 74 | 95 | 0.0 | 4.0 | 0.00 | 0.00 | 0.00 | 62 | 1020.1 |
| 20260509173106 | 72 | 95 | 1.0 | 3.0 | 0.00 | 0.00 | 0.00 | 63 | 1020.0 |
| 20260509171554 | 71 | 95 | 0.0 | 4.0 | 0.00 | 0.00 | 0.00 | 64 | 1020.1 |
| 20260509170046 | 70 | 95 | 1.0 | 3.0 | 0.00 | 0.00 | 0.00 | 66 | 1020.2 |
| 20260509164543 | 68 | 95 | 0.0 | 4.0 | 0.00 | 0.00 | 0.00 | 68 | 1020.1 |
| 20260509163049 | 67 | 95 | 1.0 | 4.0 | 0.00 | 0.00 | 0.00 | 69 | 1020.3 |
| 20260509161532 | 66 | 95 | 1.0 | 3.0 | 0.00 | 0.00 | 0.00 | 71 | 1020.4 |
| 20260509160028 | 64 | 95 | 0.0 | 2.0 | 0.00 | 0.00 | 0.00 | 74 | 1020.4 |
| 20260509154523 | 63 | 95 | 0.0 | 2.0 | 0.00 | 0.00 | 0.00 | 75 | 1020.3 |
| 20260509153022 | 61 | 95 | 0.0 | 2.0 | 0.00 | 0.00 | 0.00 | 78 | 1020.1 |
| 20260509151514 | 60 | 95 | 0.0 | 4.0 | 0.00 | 0.00 | 0.00 | 80 | 1020.2 |
| 20260509150010 | 59 | 95 | 2.0 | 4.0 | 0.00 | 0.00 | 0.00 | 80 | 1020.3 |
| 20260509144506 | 58 | 95 | 0.0 | 3.0 | 0.00 | 0.00 | 0.00 | 82 | 1020.3 |
| 20260509143002 | 58 | 95 | 0.0 | 0.0 | 0.00 | 0.00 | 0.00 | 83 | 1020.2 |
| 20260509141600 | 57 | 95 | 0.0 | 0.0 | 0.00 | 0.00 | 0.00 | 84 | 1020.0 |
| 20260509140117 | 56 | 95 | 0.0 | 1.0 | 0.00 | 0.00 | 0.00 | 85 | 1020.1 |
| 20260509134559 | 56 | 95 | 0.0 | 2.0 | 0.00 | 0.00 | 0.00 | 86 | 1020.0 |
| 20260509133104 | 56 | 95 | 0.0 | 4.0 | 0.00 | 0.00 | 0.00 | 86 | 1020.0 |
| 20260509131555 | 56 | 95 | 0.0 | 0.0 | 0.00 | 0.00 | 0.00 | 86 | 1019.8 |
| 20260509130055 | 56 | 95 | 0.0 | 0.0 | 0.00 | 0.00 | 0.00 | 85 | 1019.7 |
| 20260509124605 | 56 | 95 | 0.0 | 3.0 | 0.00 | 0.00 | 0.00 | 85 | 1019.7 |
| 20260509123051 | 56 | 95 | 0.0 | 1.0 | 0.00 | 0.00 | 0.00 | 84 | 1019.6 |
| 20260509121549 | 56 | 95 | 0.0 | 2.0 | 0.00 | 0.00 | 0.00 | 84 | 1019.5 |
| 20260509120048 | 57 | 95 | 0.0 | 3.0 | 0.00 | 0.00 | 0.00 | 83 | 1019.7 |
| 20260509114555 | 57 | 95 | 0.0 | 3.0 | 0.00 | 0.00 | 0.00 | 83 | 1019.7 |
| 20260509113046 | 57 | 95 | 0.0 | 3.0 | 0.00 | 0.00 | 0.00 | 82 | 1019.6 |
| 20260509111544 | 58 | 95 | 0.0 | 3.0 | 0.00 | 0.00 | 0.00 | 82 | 1019.6 |
| 20260509110043 | 58 | 95 | 0.0 | 2.0 | 0.00 | 0.00 | 0.00 | 81 | 1019.8 |
| 20260509104541 | 58 | 95 | 0.0 | 1.0 | 0.00 | 0.00 | 0.00 | 81 | 1019.5 |
| 20260509103040 | 59 | 95 | 0.0 | 1.0 | 0.00 | 0.00 | 0.00 | 83 | 1019.5 |
| 20260509101539 | 59 | 95 | 0.0 | 2.0 | 0.00 | 0.00 | 0.00 | 81 | 1019.6 |
| 20260509100039 | 59 | 95 | 0.0 | 0.0 | 0.00 | 0.00 | 0.00 | 80 | 1019.6 |
| 20260509094538 | 59 | 95 | 0.0 | 0.0 | 0.00 | 0.00 | 0.00 | 80 | 1019.7 |
| 20260509093035 | 59 | 95 | 0.0 | 0.0 | 0.00 | 0.00 | 0.00 | 80 | 1019.9 |
| 20260509091537 | 59 | 95 | 0.0 | 0.0 | 0.00 | 0.00 | 0.00 | 80 | 1019.9 |
| 20260509090034 | 59 | 95 | 0.0 | 3.0 | 0.00 | 0.00 | 0.00 | 80 | 1019.9 |
| 20260509084537 | 59 | 95 | 0.0 | 2.0 | 0.00 | 0.00 | 0.00 | 80 | 1020.0 |
| 20260509083031 | 59 | 95 | 0.0 | 3.0 | 0.00 | 0.00 | 0.00 | 79 | 1020.0 |
| 20260509081532 | 60 | 95 | 0.0 | 1.0 | 0.00 | 0.00 | 0.00 | 79 | 1020.0 |
| 20260509080040 | 60 | 95 | 0.0 | 2.0 | 0.00 | 0.00 | 0.00 | 78 | 1020.0 |
| 20260509074528 | 60 | 95 | 0.0 | 2.0 | 0.00 | 0.00 | 0.00 | 78 | 1020.1 |
| 20260509073041 | 61 | 95 | 0.0 | 3.0 | 0.00 | 0.00 | 0.00 | 77 | 1020.0 |
| 20260509071523 | 61 | 95 | 0.0 | 1.0 | 0.00 | 0.00 | 0.00 | 77 | 1020.0 |
| 20260509070021 | 62 | 95 | 0.0 | 2.0 | 0.00 | 0.00 | 0.00 | 76 | 1019.9 |
| 20260509064519 | 62 | 95 | 0.0 | 2.0 | 0.00 | 0.00 | 0.00 | 76 | 1019.9 |
| 20260509063025 | 62 | 95 | 0.0 | 3.0 | 0.00 | 0.00 | 0.00 | 76 | 1019.8 |
| 20260509061522 | 63 | 95 | 0.0 | 2.0 | 0.00 | 0.00 | 0.00 | 75 | 1019.8 |
| 20260509060018 | 63 | 95 | 0.0 | 3.0 | 0.00 | 0.00 | 0.00 | 74 | 1019.8 |
| 20260509054527 | 64 | 95 | 0.0 | 4.0 | 0.00 | 0.00 | 0.00 | 74 | 1019.8 |
| 20260509053017 | 64 | 95 | 0.0 | 2.0 | 0.00 | 0.00 | 0.00 | 73 | 1019.8 |
| 20260509051517 | 65 | 95 | 0.0 | 4.0 | 0.00 | 0.00 | 0.00 | 72 | 1019.7 |
| 20260509050022 | 66 | 95 | 0.0 | 6.0 | 0.00 | 0.00 | 0.00 | 71 | 1019.7 |
| 20260509044516 | 66 | 95 | 0.0 | 1.0 | 0.00 | 0.00 | 0.00 | 71 | 1019.7 |
| 20260509043033 | 67 | 95 | 0.0 | 7.0 | 0.00 | 0.00 | 0.00 | 70 | 1019.6 |
| 20260509041515 | 68 | 95 | 0.0 | 3.0 | 0.00 | 0.00 | 0.00 | 69 | 1019.5 |
| 20260509040014 | 69 | 95 | 0.0 | 6.0 | 0.00 | 0.00 | 0.00 | 68 | 1019.4 |
| 20260509034514 | 70 | 95 | 0.0 | 6.0 | 0.00 | 0.00 | 0.00 | 67 | 1019.2 |
| 20260509033014 | 71 | 95 | 1.0 | 8.0 | 0.00 | 0.00 | 0.00 | 65 | 1019.2 |
| 20260509031517 | 72 | 95 | 3.0 | 8.0 | 0.00 | 0.00 | 0.00 | 64 | 1019.3 |
| 20260509030013 | 74 | 95 | 1.0 | 7.0 | 0.00 | 0.00 | 0.00 | 64 | 1019.1 |
| 20260509024512 | 75 | 95 | 1.0 | 8.0 | 0.00 | 0.00 | 0.00 | 63 | 1019.0 |
| 20260509023020 | 76 | 95 | 1.0 | 7.0 | 0.00 | 0.00 | 0.00 | 62 | 1018.9 |
| 20260509021518 | 77 | 95 | 1.0 | 6.0 | 0.00 | 0.00 | 0.00 | 60 | 1018.8 |
| 20260509020010 | 78 | 95 | 1.0 | 7.0 | 0.00 | 0.00 | 0.00 | 59 | 1018.9 |
| 20260509014509 | 78 | 95 | 1.0 | 8.0 | 0.00 | 0.00 | 0.00 | 56 | 1018.9 |
| 20260509013022 | 79 | 95 | 1.0 | 7.0 | 0.00 | 0.00 | 0.00 | 55 | 1019.0 |
| 20260509011508 | 81 | 94 | 3.0 | 9.0 | 0.00 | 0.00 | 0.00 | 54 | 1019.0 |
| 20260509010006 | 82 | 93 | 0.0 | 7.0 | 0.00 | 0.00 | 0.00 | 53 | 1019.1 |
| 20260509004516 | 83 | 90 | 1.0 | 8.0 | 0.00 | 0.00 | 0.00 | 52 | 1019.2 |
| 20260509003004 | 84 | 89 | 0.0 | 8.0 | 0.00 | 0.00 | 0.00 | 49 | 1019.3 |